QPF
0.00 0.00 0.00 0.00 0.00 0.00 0.00 0.00 0.00 0.00 0.00 0.00 0.00 0.00 0.00 0.00 0.00 0.00 0.00 0.00 0.00 0.00 0.00 0.00 0.00 0.00 0.01 0.01 0.01 0.01 0.01 0.02 0.02 0.02 0.01 0.01 0.01 0.01 0.01 0.02 0.02 0.01 0.01
0.00 0.00 0.00 0.00 0.00 0.00 0.00 0.00 0.00 0.00 0.00 0.00 0.00 0.00 0.00 0.00 0.00 0.00 0.00 0.00 0.00 0.00 0.01 0.01 0.01 0.01 0.01 0.01 0.01 0.01 0.01 0.01 0.01 0.01 0.01 0.01 0.02 0.02 0.01 0.01 0.01 0.01 0.02
0.00 0.00 0.00 0.00 0.00 0.00 0.00 0.00 0.00 0.00 0.00 0.00 0.00 0.00 0.00 0.00 0.00 0.00 0.00 0.00 0.00 0.00 0.00 0.00 0.00 0.00 0.01 0.01 0.01 0.01 0.01 0.01 0.01 0.01 0.00 0.01 0.01 0.01 0.01 0.01 0.01 0.01 0.01
0.00 0.00 0.00 0.00 0.00 0.00 0.00 0.00 0.00 0.00 0.00 0.00 0.00 0.00 0.00 0.00 0.00 0.00 0.00 0.00 0.00 0.00 0.00 0.00 0.00 0.00 0.01 0.01 0.01 0.01 0.01 0.01 0.01 0.01 0.00 0.00 0.00 0.00 0.01 0.01 0.01 0.01 0.01
0.00 0.00 0.00 0.00 0.00 0.00 0.00 0.00 0.00 0.00 0.00 0.00 0.00 0.00 0.00 0.00 0.00 0.00 0.00 0.00 0.00 0.00 0.00 0.00 0.00 0.00 0.00 0.00 0.00 0.01 0.01 0.02 0.02 0.02 0.01 0.01 0.01 0.01 0.01 0.01 0.01 0.01 0.01
0.00 0.00 0.00 0.00 0.00 0.00 0.00 0.00 0.00 0.00 0.00 0.00 0.00 0.00 0.00 0.00 0.00 0.00 0.00 0.00 0.00 0.00 0.00 0.00 0.00 0.00 0.00 0.00 0.00 0.00 0.00 0.01 0.01 0.02 0.01 0.02 0.02 0.02 0.02 0.02 0.02 0.02 0.02
0.00 0.00 0.00 0.00 0.00 0.00 0.00 0.00 0.00 0.00 0.00 0.00 0.00 0.00 0.00 0.00 0.00 0.00 0.00 0.00 0.00 0.00 0.00 0.00 0.00 0.00 0.00 0.00 0.01 0.00 0.00 0.00 0.00 0.01 0.02 0.02 0.02 0.03 0.03 0.02 0.03 0.03 0.03
0.00 0.00 0.00 0.00 0.00 0.00 0.00 0.00 0.00 0.00 0.00 0.00 0.00 0.00 0.00 0.00 0.00 0.00 0.00 0.00 0.00 0.00 0.00 0.00 0.00 0.01 0.00 0.00 0.01 0.01 0.02 0.02 0.01 0.01 0.02 0.02 0.03 0.03 0.04 0.03 0.03 0.03 0.02
0.00 0.00 0.00 0.00 0.00 0.00 0.00 0.00 0.00 0.00 0.00 0.00 0.00 0.00 0.00 0.00 0.00 0.00 0.00 0.00 0.00 0.00 0.00 0.00 0.00 0.00 0.00 0.00 0.00 0.01 0.01 0.01 0.00 0.00 0.00 0.01 0.01 0.01 0.02 0.02 0.03 0.03 0.03
0.00 0.00 0.00 0.00 0.00 0.00 0.00 0.00 0.00 0.00 0.00 0.00 0.00 0.00 0.00 0.00 0.00 0.00 0.00 0.00 0.00 0.00 0.00 0.00 0.00 0.00 0.00 0.00 0.00 0.00 0.01 0.01 0.01 0.01 0.01 0.01 0.01 0.01 0.02 0.02 0.04 0.06 0.05
0.00 0.00 0.00 0.00 0.00 0.00 0.00 0.00 0.00 0.00 0.00 0.00 0.00 0.00 0.00 0.00 0.00 0.00 0.00 0.00 0.00 0.00 0.00 0.00 0.00 0.00 0.00 0.00 0.00 0.00 0.00 0.00 0.01 0.01 0.02 0.02 0.02 0.03 0.04 0.04 0.05 0.07 0.07
0.00 0.00 0.00 0.00 0.00 0.00 0.00 0.00 0.00 0.00 0.00 0.00 0.00 0.01 0.00 0.00 0.00 0.00 0.00 0.00 0.00 0.00 0.00 0.00 0.00 0.00 0.00 0.00 0.00 0.00 0.00 0.00 0.00 0.01 0.02 0.02 0.03 0.03 0.03 0.03 0.04 0.06 0.07
0.00 0.00 0.00 0.00 0.00 0.00 0.00 0.00 0.00 0.00 0.00 0.00 0.00 0.00 0.00 0.00 0.00 0.00 0.00 0.00 0.00 0.00 0.00 0.00 0.00 0.00 0.00 0.00 0.00 0.00 0.00 0.00 0.01 0.01 0.01 0.03 0.03 0.03 0.03 0.03 0.05 0.06 0.06
0.00 0.00 0.00 0.00 0.00 0.00 0.00 0.00 0.00 0.00 0.00 0.00 0.00 0.00 0.00 0.00 0.00 0.00 0.00 0.00 0.00 0.00 0.00 0.00 0.00 0.00 0.00 0.00 0.01 0.01 0.01 0.01 0.01 0.01 0.01 0.02 0.03 0.04 0.04 0.04 0.05 0.06 0.06
0.00 0.00 0.00 0.00 0.00 0.00 0.00 0.00 0.00 0.00 0.00 0.00 0.00 0.00 0.00 0.00 0.00 0.00 0.00 0.00 0.00 0.00 0.00 0.00 0.00 0.00 0.01 0.01 0.01 0.01 0.01 0.02 0.02 0.02 0.02 0.03 0.03 0.04 0.04 0.05 0.06 0.06 0.06
0.00 0.00 0.00 0.00 0.00 0.00 0.00 0.00 0.00 0.00 0.00 0.00 0.00 0.00 0.00 0.00 0.00 0.00 0.00 0.00 0.00 0.00 0.00 0.00 0.00 0.01 0.01 0.01 0.01 0.01 0.01 0.02 0.02 0.03 0.02 0.03 0.04 0.04 0.05 0.05 0.05 0.06 0.06
0.00 0.00 0.00 0.00 0.00 0.00 0.00 0.00 0.00 0.00 0.00 0.00 0.00 0.00 0.00 0.00 0.00 0.00 0.00 0.00 0.00 0.00 0.00 0.00 0.00 0.01 0.01 0.01 0.01 0.01 0.01 0.02 0.02 0.03 0.03 0.03 0.04 0.05 0.05 0.06 0.06 0.06 0.06
0.00 0.00 0.00 0.00 0.00 0.00 0.00 0.01 0.01 0.01 0.01 0.01 0.01 0.01 0.00 0.00 0.00 0.00 0.00 0.00 0.00 0.00 0.00 0.01 0.01 0.01 0.01 0.02 0.02 0.02 0.02 0.02 0.03 0.03 0.04 0.03 0.04 0.06 0.06 0.06 0.06 0.07 0.08
0.00 0.00 0.00 0.00 0.00 0.00 0.01 0.01 0.01 0.01 0.01 0.00 0.00 0.01 0.01 0.00 0.00 0.00 0.00 0.00 0.00 0.01 0.01 0.01 0.02 0.02 0.02 0.02 0.02 0.02 0.02 0.03 0.03 0.04 0.05 0.05 0.05 0.07 0.07 0.06 0.07 0.07 0.07
0.00 0.00 0.00 0.00 0.00 0.01 0.01 0.01 0.00 0.00 0.00 0.00 0.00 0.00 0.00 0.00 0.00 0.00 0.01 0.01 0.01 0.01 0.01 0.01 0.02 0.02 0.02 0.03 0.03 0.04 0.03 0.03 0.03 0.04 0.04 0.05 0.05 0.05 0.07 0.07 0.06 0.06 0.07
0.00 0.00 0.01 0.01 0.01 0.01 0.01 0.01 0.01 0.00 0.00 0.00 0.00 0.00 0.00 0.00 0.00 0.00 0.01 0.01 0.01 0.01 0.01 0.01 0.01 0.02 0.03 0.04 0.05 0.05 0.04 0.04 0.04 0.04 0.05 0.05 0.05 0.05 0.06 0.06 0.06 0.07 0.07
0.01 0.01 0.01 0.01 0.01 0.02 0.01 0.01 0.01 0.01 0.00 0.00 0.01 0.01 0.00 0.00 0.01 0.01 0.01 0.01 0.02 0.02 0.01 0.01 0.01 0.01 0.02 0.03 0.06 0.07 0.05 0.05 0.05 0.05 0.05 0.06 0.06 0.06 0.06 0.06 0.07 0.08 0.08
0.01 0.01 0.01 0.01 0.02 0.02 0.02 0.02 0.01 0.01 0.01 0.01 0.01 0.01 0.01 0.01 0.02 0.01 0.01 0.01 0.02 0.02 0.02 0.02 0.02 0.01 0.02 0.03 0.05 0.07 0.06 0.05 0.04 0.03 0.04 0.04 0.04 0.05 0.05 0.05 0.07 0.09 0.09
0.01 0.01 0.01 0.02 0.03 0.03 0.03 0.03 0.03 0.02 0.02 0.02 0.02 0.02 0.02 0.03 0.02 0.02 0.02 0.02 0.02 0.02 0.02 0.02 0.02 0.02 0.02 0.03 0.04 0.05 0.04 0.04 0.03 0.03 0.04 0.05 0.04 0.04 0.04 0.04 0.06 0.08 0.08
0.01 0.01 0.01 0.02 0.02 0.02 0.03 0.03 0.02 0.02 0.02 0.01 0.01 0.02 0.02 0.02 0.02 0.02 0.01 0.01 0.01 0.02 0.03 0.03 0.03 0.02 0.02 0.03 0.04 0.05 0.06 0.07 0.08 0.05 0.04 0.05 0.04 0.03 0.03 0.03 0.04 0.05 0.07
0.00 0.00 0.00 0.01 0.01 0.01 0.01 0.01 0.01 0.01 0.01 0.01 0.01 0.02 0.01 0.02 0.02 0.01 0.01 0.01 0.01 0.02 0.02 0.02 0.02 0.02 0.02 0.03 0.03 0.03 0.04 0.04 0.06 0.06 0.04 0.03 0.03 0.03 0.03 0.03 0.04 0.05 0.05
MSLP
1018.06 1018.61 1019.12 1019.56 1019.90 1020.13 1020.27 1020.32 1020.30 1020.26 1020.20 1020.16 1020.14 1020.14 1020.16 1020.20 1020.24 1020.27 1020.29 1020.29 1020.28 1020.26 1020.22 1020.16 1020.09 1019.99 1019.86 1019.70 1019.50 1019.28 1019.03 1018.77 1018.49 1018.23 1017.97 1017.73 1017.50 1017.28 1017.08 1016.87 1016.67 1016.47 1016.29
1017.75 1018.31 1018.82 1019.27 1019.62 1019.88 1020.04 1020.12 1020.13 1020.10 1020.05 1020.01 1019.97 1019.95 1019.95 1019.95 1019.96 1019.98 1019.98 1019.98 1019.97 1019.96 1019.93 1019.90 1019.85 1019.77 1019.67 1019.53 1019.36 1019.15 1018.92 1018.67 1018.40 1018.13 1017.86 1017.60 1017.34 1017.09 1016.83 1016.57 1016.31 1016.05 1015.80
1017.48 1018.02 1018.52 1018.95 1019.31 1019.57 1019.75 1019.86 1019.90 1019.90 1019.88 1019.85 1019.82 1019.80 1019.78 1019.76 1019.74 1019.72 1019.70 1019.68 1019.66 1019.63 1019.61 1019.59 1019.56 1019.51 1019.43 1019.33 1019.19 1019.01 1018.80 1018.56 1018.30 1018.03 1017.75 1017.47 1017.19 1016.90 1016.60 1016.29 1015.97 1015.65 1015.33
1017.20 1017.73 1018.20 1018.61 1018.95 1019.21 1019.41 1019.54 1019.62 1019.66 1019.69 1019.69 1019.68 1019.67 1019.64 1019.61 1019.56 1019.51 1019.45 1019.39 1019.34 1019.30 1019.28 1019.26 1019.24 1019.22 1019.17 1019.10 1018.99 1018.85 1018.66 1018.44 1018.19 1017.92 1017.63 1017.34 1017.03 1016.71 1016.38 1016.03 1015.67 1015.29 1014.91
1016.90 1017.40 1017.85 1018.23 1018.55 1018.81 1019.01 1019.17 1019.29 1019.38 1019.45 1019.50 1019.53 1019.53 1019.51 1019.46 1019.39 1019.30 1019.20 1019.11 1019.03 1018.96 1018.93 1018.91 1018.91 1018.91 1018.90 1018.86 1018.78 1018.66 1018.50 1018.29 1018.05 1017.77 1017.48 1017.17 1016.84 1016.50 1016.14 1015.77 1015.37 1014.96 1014.54
1016.55 1017.03 1017.45 1017.81 1018.11 1018.36 1018.57 1018.75 1018.91 1019.05 1019.16 1019.26 1019.32 1019.34 1019.32 1019.27 1019.17 1019.05 1018.92 1018.79 1018.68 1018.60 1018.56 1018.55 1018.56 1018.58 1018.60 1018.59 1018.54 1018.44 1018.28 1018.08 1017.83 1017.55 1017.24 1016.91 1016.58 1016.23 1015.86 1015.48 1015.07 1014.64 1014.19
1016.14 1016.62 1017.02 1017.37 1017.65 1017.90 1018.11 1018.31 1018.49 1018.66 1018.81 1018.94 1019.02 1019.06 1019.05 1018.98 1018.87 1018.72 1018.57 1018.41 1018.29 1018.20 1018.15 1018.15 1018.18 1018.22 1018.26 1018.27 1018.23 1018.14 1017.99 1017.77 1017.51 1017.21 1016.89 1016.55 1016.20 1015.85 1015.49 1015.11 1014.72 1014.29 1013.84
1015.71 1016.19 1016.59 1016.92 1017.20 1017.44 1017.65 1017.85 1018.04 1018.22 1018.38 1018.52 1018.62 1018.66 1018.65 1018.57 1018.45 1018.29 1018.12 1017.96 1017.83 1017.74 1017.70 1017.71 1017.76 1017.82 1017.87 1017.89 1017.85 1017.75 1017.58 1017.35 1017.06 1016.74 1016.39 1016.04 1015.68 1015.34 1014.99 1014.64 1014.27 1013.87 1013.44
1015.31 1015.79 1016.19 1016.52 1016.78 1017.01 1017.20 1017.39 1017.57 1017.74 1017.89 1018.02 1018.11 1018.14 1018.11 1018.03 1017.90 1017.74 1017.57 1017.42 1017.30 1017.22 1017.20 1017.23 1017.29 1017.36 1017.41 1017.42 1017.38 1017.25 1017.06 1016.79 1016.47 1016.11 1015.74 1015.36 1015.01 1014.67 1014.34 1014.02 1013.70 1013.34 1012.96
1014.95 1015.44 1015.84 1016.16 1016.41 1016.62 1016.79 1016.94 1017.09 1017.23 1017.35 1017.44 1017.50 1017.51 1017.47 1017.38 1017.25 1017.10 1016.95 1016.81 1016.72 1016.67 1016.67 1016.71 1016.77 1016.84 1016.88 1016.87 1016.79 1016.64 1016.40 1016.09 1015.73 1015.34 1014.93 1014.54 1014.18 1013.85 1013.55 1013.27 1012.98 1012.69 1012.36
1014.65 1015.14 1015.53 1015.84 1016.07 1016.25 1016.38 1016.50 1016.59 1016.68 1016.75 1016.80 1016.82 1016.80 1016.75 1016.66 1016.54 1016.41 1016.28 1016.18 1016.11 1016.08 1016.10 1016.14 1016.20 1016.25 1016.27 1016.22 1016.10 1015.90 1015.62 1015.27 1014.87 1014.44 1014.01 1013.61 1013.24 1012.91 1012.63 1012.38 1012.14 1011.90 1011.63
1014.37 1014.85 1015.23 1015.52 1015.72 1015.86 1015.95 1016.02 1016.06 1016.08 1016.10 1016.10 1016.08 1016.04 1015.98 1015.90 1015.80 1015.70 1015.61 1015.54 1015.49 1015.49 1015.50 1015.54 1015.57 1015.59 1015.56 1015.46 1015.29 1015.04 1014.72 1014.33 1013.90 1013.44 1013.00 1012.59 1012.22 1011.90 1011.63 1011.40 1011.20 1010.99 1010.78
1014.07 1014.52 1014.87 1015.13 1015.30 1015.40 1015.45 1015.46 1015.45 1015.42 1015.39 1015.35 1015.31 1015.25 1015.19 1015.13 1015.06 1014.99 1014.94 1014.89 1014.87 1014.86 1014.87 1014.87 1014.86 1014.82 1014.73 1014.57 1014.35 1014.06 1013.70 1013.28 1012.84 1012.38 1011.94 1011.53 1011.17 1010.85 1010.59 1010.38 1010.19 1010.02 1009.83
1013.69 1014.10 1014.41 1014.63 1014.77 1014.83 1014.84 1014.81 1014.76 1014.69 1014.62 1014.56 1014.50 1014.45 1014.40 1014.36 1014.33 1014.30 1014.27 1014.24 1014.22 1014.19 1014.16 1014.11 1014.03 1013.92 1013.75 1013.54 1013.26 1012.93 1012.56 1012.15 1011.72 1011.28 1010.86 1010.47 1010.13 1009.83 1009.58 1009.36 1009.18 1009.01 1008.85
1013.18 1013.54 1013.81 1013.99 1014.09 1014.13 1014.11 1014.05 1013.97 1013.88 1013.80 1013.73 1013.67 1013.64 1013.61 1013.60 1013.60 1013.59 1013.57 1013.55 1013.50 1013.43 1013.34 1013.21 1013.05 1012.85 1012.61 1012.34 1012.02 1011.68 1011.31 1010.93 1010.54 1010.15 1009.79 1009.45 1009.14 1008.87 1008.63 1008.41 1008.23 1008.05 1007.87
1012.56 1012.85 1013.07 1013.22 1013.29 1013.31 1013.27 1013.20 1013.11 1013.02 1012.95 1012.88 1012.84 1012.83 1012.83 1012.84 1012.85 1012.85 1012.83 1012.77 1012.68 1012.54 1012.36 1012.14 1011.89 1011.60 1011.29 1010.96 1010.63 1010.29 1009.96 1009.63 1009.32 1009.02 1008.74 1008.48 1008.23 1007.99 1007.77 1007.56 1007.36 1007.17 1006.98
1011.86 1012.10 1012.28 1012.39 1012.44 1012.45 1012.41 1012.34 1012.26 1012.18 1012.11 1012.06 1012.04 1012.03 1012.05 1012.06 1012.07 1012.05 1011.99 1011.89 1011.72 1011.50 1011.23 1010.91 1010.56 1010.19 1009.82 1009.46 1009.12 1008.82 1008.54 1008.31 1008.10 1007.91 1007.74 1007.57 1007.40 1007.22 1007.03 1006.83 1006.62 1006.41 1006.19
1011.18 1011.37 1011.50 1011.59 1011.63 1011.63 1011.60 1011.54 1011.47 1011.40 1011.34 1011.30 1011.28 1011.28 1011.28 1011.28 1011.26 1011.19 1011.08 1010.90 1010.64 1010.33 1009.95 1009.54 1009.10 1008.66 1008.25 1007.88 1007.57 1007.32 1007.13 1007.00 1006.91 1006.85 1006.79 1006.73 1006.65 1006.54 1006.39 1006.21 1006.00 1005.77 1005.53
1010.60 1010.74 1010.84 1010.91 1010.95 1010.95 1010.92 1010.87 1010.81 1010.75 1010.69 1010.65 1010.61 1010.58 1010.55 1010.51 1010.43 1010.29 1010.10 1009.83 1009.48 1009.07 1008.61 1008.11 1007.61 1007.13 1006.70 1006.34 1006.07 1005.89 1005.80 1005.78 1005.82 1005.88 1005.94 1005.99 1005.99 1005.94 1005.84 1005.68 1005.47 1005.24 1004.98
1010.18 1010.28 1010.36 1010.42 1010.45 1010.45 1010.42 1010.38 1010.32 1010.25 1010.18 1010.11 1010.04 1009.97 1009.88 1009.77 1009.61 1009.40 1009.11 1008.75 1008.32 1007.83 1007.29 1006.74 1006.20 1005.71 1005.29 1004.97 1004.76 1004.66 1004.66 1004.74 1004.89 1005.05 1005.22 1005.34 1005.41 1005.41 1005.34 1005.20 1005.00 1004.76 1004.48
1009.94 1010.02 1010.07 1010.11 1010.14 1010.14 1010.11 1010.06 1009.99 1009.91 1009.81 1009.70 1009.58 1009.45 1009.29 1009.10 1008.86 1008.56 1008.19 1007.75 1007.25 1006.70 1006.13 1005.55 1005.01 1004.53 1004.15 1003.88 1003.74 1003.72 1003.80 1003.97 1004.19 1004.43 1004.65 1004.82 1004.93 1004.95 1004.88 1004.74 1004.53 1004.28 1004.00
1009.87 1009.91 1009.94 1009.96 1009.98 1009.97 1009.93 1009.87 1009.78 1009.67 1009.54 1009.39 1009.22 1009.02 1008.79 1008.53 1008.21 1007.84 1007.41 1006.92 1006.38 1005.81 1005.22 1004.66 1004.15 1003.72 1003.39 1003.19 1003.11 1003.15 1003.29 1003.51 1003.77 1004.03 1004.27 1004.44 1004.53 1004.53 1004.44 1004.27 1004.03 1003.76 1003.45
1009.88 1009.88 1009.89 1009.89 1009.88 1009.85 1009.81 1009.73 1009.63 1009.49 1009.33 1009.14 1008.93 1008.68 1008.40 1008.08 1007.72 1007.30 1006.84 1006.33 1005.79 1005.23 1004.68 1004.16 1003.71 1003.34 1003.08 1002.94 1002.92 1003.00 1003.17 1003.40 1003.64 1003.88 1004.07 1004.19 1004.21 1004.15 1003.99 1003.76 1003.47 1003.15 1002.81
1009.89 1009.85 1009.82 1009.79 1009.76 1009.71 1009.65 1009.56 1009.44 1009.30 1009.13 1008.92 1008.69 1008.42 1008.12 1007.78 1007.40 1006.97 1006.51 1006.02 1005.51 1004.99 1004.50 1004.05 1003.67 1003.38 1003.18 1003.10 1003.11 1003.21 1003.38 1003.57 1003.76 1003.93 1004.02 1004.04 1003.96 1003.79 1003.53 1003.20 1002.83 1002.44 1002.06
1009.84 1009.74 1009.67 1009.60 1009.54 1009.47 1009.40 1009.30 1009.19 1009.05 1008.89 1008.70 1008.48 1008.23 1007.94 1007.61 1007.25 1006.86 1006.43 1005.98 1005.52 1005.07 1004.65 1004.28 1003.97 1003.74 1003.60 1003.56 1003.59 1003.67 1003.80 1003.93 1004.03 1004.09 1004.06 1003.94 1003.73 1003.42 1003.04 1002.60 1002.13 1001.66 1001.21
1009.68 1009.53 1009.41 1009.30 1009.21 1009.12 1009.04 1008.96 1008.86 1008.75 1008.63 1008.48 1008.30 1008.09 1007.85 1007.58 1007.27 1006.92 1006.55 1006.16 1005.77 1005.39 1005.03 1004.73 1004.48 1004.30 1004.20 1004.16 1004.18 1004.23 1004.29 1004.33 1004.33 1004.25 1004.09 1003.83 1003.47 1003.02 1002.51 1001.96 1001.39 1000.83 1000.32
Thickness
5701 5698 5694 5691 5688 5685 5682 5680 5678 5675 5673 5671 5669 5667 5665 5663 5660 5658 5658 5655 5653 5652 5651 5650 5648 5647 5648 5650 5650 5650 5649 5648 5647 5651 5654 5656 5653 5653 5656 5658 5661 5664 5669
5702 5698 5694 5691 5688 5685 5683 5680 5677 5674 5672 5670 5668 5665 5663 5661 5658 5656 5654 5653 5651 5649 5647 5645 5644 5644 5641 5641 5642 5642 5643 5642 5640 5640 5644 5647 5647 5647 5648 5650 5654 5659 5662
5704 5699 5695 5692 5688 5685 5683 5680 5677 5674 5671 5669 5667 5664 5661 5659 5656 5653 5651 5649 5647 5645 5643 5641 5639 5638 5635 5637 5634 5636 5637 5637 5636 5635 5637 5639 5640 5641 5641 5644 5648 5650 5654
5705 5700 5696 5692 5688 5685 5682 5679 5676 5673 5671 5668 5665 5663 5660 5657 5655 5652 5649 5647 5644 5642 5640 5637 5635 5634 5631 5630 5629 5628 5628 5628 5628 5628 5630 5632 5633 5634 5634 5636 5640 5645 5648
5705 5701 5696 5693 5689 5685 5682 5679 5676 5673 5670 5667 5664 5661 5659 5656 5654 5649 5646 5645 5642 5639 5637 5635 5633 5629 5625 5622 5623 5624 5622 5621 5622 5622 5623 5625 5626 5626 5627 5630 5632 5635 5640
5705 5701 5697 5693 5689 5685 5681 5678 5675 5672 5668 5665 5663 5660 5658 5656 5649 5643 5639 5640 5639 5637 5634 5632 5631 5627 5623 5618 5614 5612 5610 5611 5614 5614 5616 5616 5616 5618 5619 5619 5622 5625 5628
5705 5701 5697 5692 5688 5685 5682 5678 5674 5670 5667 5663 5661 5659 5656 5652 5645 5640 5635 5634 5636 5634 5632 5629 5629 5629 5622 5620 5615 5610 5607 5604 5602 5603 5605 5606 5608 5610 5609 5610 5611 5612 5616
5705 5701 5696 5692 5688 5684 5680 5676 5672 5669 5666 5662 5659 5657 5654 5650 5644 5638 5633 5632 5634 5632 5630 5628 5625 5622 5620 5614 5612 5611 5609 5608 5604 5600 5600 5600 5600 5600 5599 5599 5600 5603 5606
5705 5700 5696 5692 5687 5682 5678 5674 5671 5667 5664 5661 5659 5656 5652 5649 5642 5637 5630 5633 5634 5632 5629 5627 5622 5619 5613 5607 5604 5605 5604 5604 5602 5599 5596 5594 5592 5590 5588 5589 5593 5595 5599
5706 5701 5696 5691 5686 5681 5677 5673 5670 5666 5662 5660 5658 5655 5652 5648 5642 5635 5629 5633 5633 5631 5629 5625 5619 5614 5608 5602 5600 5600 5599 5599 5598 5598 5593 5591 5589 5588 5585 5583 5586 5588 5592
5705 5699 5694 5689 5684 5680 5675 5671 5667 5664 5661 5658 5656 5654 5651 5647 5642 5635 5628 5628 5630 5628 5628 5626 5623 5612 5605 5598 5594 5594 5595 5591 5591 5591 5592 5592 5591 5589 5587 5585 5584 5583 5585
5702 5696 5691 5686 5683 5680 5673 5668 5665 5661 5658 5655 5653 5651 5651 5648 5642 5637 5629 5623 5621 5621 5621 5622 5619 5609 5602 5596 5593 5592 5588 5583 5586 5589 5589 5589 5588 5588 5587 5585 5583 5581 5580
5696 5691 5687 5683 5679 5676 5671 5667 5663 5659 5658 5658 5656 5653 5652 5650 5645 5635 5628 5622 5617 5615 5618 5615 5609 5603 5598 5596 5593 5589 5584 5585 5587 5588 5587 5586 5586 5585 5582 5580 5579 5577 5576
5691 5687 5683 5679 5675 5671 5668 5666 5664 5661 5659 5656 5653 5651 5649 5647 5643 5639 5633 5625 5616 5613 5613 5612 5605 5600 5596 5594 5593 5591 5588 5588 5587 5586 5585 5585 5583 5581 5579 5577 5576 5575 5575
5687 5683 5679 5676 5673 5669 5666 5664 5662 5659 5657 5650 5650 5647 5644 5641 5637 5628 5624 5623 5621 5616 5610 5609 5609 5607 5604 5602 5599 5597 5593 5590 5586 5584 5581 5580 5579 5578 5577 5575 5573 5572 5572
5682 5678 5677 5674 5670 5667 5664 5661 5656 5652 5648 5643 5638 5634 5636 5631 5626 5620 5614 5609 5605 5599 5597 5604 5605 5604 5602 5600 5598 5596 5592 5589 5586 5583 5579 5577 5575 5575 5574 5573 5571 5570 5570
5678 5675 5673 5671 5668 5663 5660 5657 5654 5649 5642 5638 5634 5629 5625 5623 5619 5614 5608 5603 5598 5592 5594 5601 5603 5602 5599 5597 5595 5592 5590 5588 5584 5580 5577 5574 5573 5571 5570 5569 5568 5567 5567
5673 5669 5666 5664 5662 5659 5656 5653 5650 5647 5644 5642 5635 5628 5622 5618 5614 5609 5603 5597 5600 5596 5599 5600 5601 5599 5596 5594 5592 5589 5587 5584 5581 5577 5574 5572 5570 5568 5567 5567 5566 5565 5565
5668 5666 5661 5659 5657 5654 5652 5649 5646 5643 5640 5638 5636 5631 5622 5616 5610 5605 5598 5599 5604 5604 5603 5600 5598 5596 5593 5591 5588 5584 5581 5578 5576 5573 5571 5568 5567 5565 5565 5565 5564 5562 5560
5661 5656 5652 5653 5651 5649 5646 5643 5640 5637 5634 5632 5629 5627 5623 5617 5614 5611 5603 5603 5602 5600 5599 5597 5595 5592 5589 5585 5582 5579 5576 5574 5572 5570 5568 5566 5565 5564 5563 5562 5562 5561 5560
5658 5653 5643 5644 5644 5642 5639 5636 5633 5629 5626 5624 5622 5620 5611 5608 5608 5606 5604 5602 5599 5595 5593 5590 5588 5585 5582 5579 5577 5574 5572 5571 5569 5567 5565 5563 5562 5561 5560 5560 5559 5559 5558
5649 5647 5643 5639 5636 5633 5630 5627 5624 5621 5618 5615 5614 5612 5604 5601 5601 5600 5597 5595 5592 5589 5585 5582 5579 5578 5575 5573 5571 5569 5567 5566 5565 5564 5562 5560 5559 5558 5557 5557 5556 5556 5555
5639 5637 5634 5631 5627 5622 5619 5618 5616 5613 5609 5606 5604 5602 5599 5596 5593 5590 5588 5585 5582 5579 5577 5573 5570 5570 5569 5566 5565 5563 5561 5560 5559 5558 5556 5555 5554 5554 5553 5553 5552 5552 5552
5629 5627 5624 5621 5618 5615 5612 5609 5606 5603 5600 5598 5596 5593 5590 5587 5584 5581 5578 5576 5573 5570 5568 5565 5564 5563 5561 5559 5558 5557 5556 5553 5551 5550 5549 5548 5548 5548 5547 5547 5548 5549 5549
5619 5616 5613 5610 5607 5605 5602 5599 5596 5593 5590 5588 5586 5583 5581 5578 5575 5572 5570 5567 5564 5562 5560 5558 5557 5556 5555 5553 5552 5551 5547 5543 5541 5540 5540 5541 5542 5542 5542 5543 5543 5544 5545
5606 5604 5602 5599 5597 5594 5591 5588 5585 5582 5580 5578 5575 5572 5569 5567 5564 5562 5559 5556 5554 5552 5551 5550 5549 5548 5547 5546 5545 5542 5538 5536 5533 5532 5531 5534 5536 5538 5538 5538 5539 5540 5542